[[{"header":{"parameterUnit":"m.s-1","parameterCategory":1,"la1":30.2991,"la2":30.254,"lo1":-89.0895,"lo2":-89.0444,"dy":0.0017,"dx":0.0017,"nx":28,"ny":28,"refTime":"2025-11-30T09:00:00:Z","depth":0,"parameterNumber":2,"parameterNumberName":"U-component_of_WINDS"},"data":[0,0,0,0,0,0,0,0,0,0,0,0,0,0,0,0,0,0,0,0,0,0,0,0,0,0,0,0,0,0,0,0,0,0,0,0,0,0,0,0,0,0,0,0,0,0,0,0,0,0,0,0,0,0,0,0,0,0,-6.396,-6.3961,0,-6.409,-6.4091,-6.4093,-6.4024,-6.402,-6.4017,-6.4014,-6.4143,-6.415,-6.4156,0,0,0,0,0,0,0,0,0,0,0,0,0,-6.3649,-6.3655,-6.396,-6.3961,-6.3963,-6.409,-6.4091,-6.4093,-6.4025,-6.402,-6.4016,-6.4012,-6.4141,-6.4149,-6.4157,0,0,0,0,0,0,0,0,0,0,0,0,0,-6.3782,-6.3657,-6.3959,-6.3944,-6.3944,-6.4089,-6.4092,-6.4094,-6.4025,-6.402,-6.4015,-6.401,-6.4139,-6.4148,-6.4158,-6.4325,0,0,-6.4189,-6.4193,0,0,0,0,0,0,0,0,-6.3775,-6.3793,-6.3945,-6.3945,-6.3945,-6.4035,-6.4029,-6.4171,-6.4027,-6.3994,-6.4014,-6.4007,-6.4111,-6.4123,-6.4159,-6.4331,-6.4337,-6.419,-6.4196,-6.42,-6.4203,0,0,0,0,0,0,0,-6.3765,-6.3787,-6.4011,-6.3947,-6.3947,-6.393,-6.3943,-6.4056,-6.408,-6.3997,-6.3992,-6.4009,-6.4111,-6.415,-6.4162,-6.4339,-6.419,-6.4199,-6.4205,-6.4209,-6.4653,-6.4659,0,0,0,0,0,0,-6.3757,-6.378,-6.4007,-6.4015,-6.3846,-6.394,-6.3954,-6.4012,-6.4079,-6.4084,-6.4013,-6.4005,-6.4135,-6.415,-6.4166,-6.4363,-6.42,-6.421,-6.4215,-6.4648,-6.4655,-6.4661,0,0,0,0,0,0,-6.3751,-6.3778,-6.4002,-6.3896,-6.3924,-6.3951,-6.4016,-6.4017,-6.4056,-6.4092,-6.4095,-6.4048,-6.4132,-6.4152,-6.4286,-6.4367,-6.4214,-6.4223,-6.4641,-6.465,-6.4658,-6.4761,0,0,0,0,0,0,-6.3742,-6.3776,-6.384,-6.3898,-6.3929,-6.412,-6.4021,-6.4023,-6.4074,-6.4065,-6.4126,-6.4131,-6.4129,-6.4271,-6.4296,-6.4378,-6.4231,-6.4633,-6.4645,-6.4655,-6.475,-6.4772,-6.4791,0,0,0,0,0,-6.3732,-6.3864,-6.3844,-6.3871,-6.401,-6.4125,-6.4142,-6.4139,-6.4081,-6.4144,-6.4168,-6.4129,-6.4356,-6.4286,-6.4313,-6.4399,-6.4628,-6.4642,-6.4654,-6.4741,-6.4768,-6.479,0,0,0,0,0,0,-6.3812,-6.3871,-6.3849,-6.4004,-6.4061,-6.4113,-6.4193,-6.4167,-6.424,-6.4228,-6.422,-6.4234,-6.4373,-6.4401,-6.4321,-6.4564,-6.4483,-6.4502,-6.454,-6.4565,-6.4585,-6.4573,-6.424,0,0,0,0,0,-6.3848,-6.3938,-6.3984,-6.4116,-6.4146,-6.4165,-6.4215,-6.4208,-6.4265,-6.4288,-6.4321,-6.4377,-6.446,-6.4515,-6.4595,-6.4757,-6.4767,-6.483,-6.485,-6.4866,-6.4881,-6.4966,-6.4993,-6.4703,-6.4703,-6.4703,0,0,-6.3922,-6.3966,-6.4022,-6.4134,-6.4176,-6.4267,-6.4185,-6.4285,-6.4352,-6.4303,-6.443,-6.4458,-6.452,-6.4668,-6.4735,-6.4695,-6.4964,-6.4883,-6.4896,-6.4901,-6.4982,-6.501,-6.5034,-6.4712,-6.4711,-6.4709,0,0,-6.4104,-6.4148,-6.4261,-6.4306,-6.4373,-6.4385,-6.4413,-6.4471,-6.4487,-6.4617,-6.4581,-6.4661,-6.4806,-6.4851,-6.4893,-6.5097,-6.5062,-6.5123,-6.5226,-6.531,-6.5332,-6.5352,-6.5421,-6.5446,-6.5139,-6.5139,-6.514,0,-6.4186,-6.4324,-6.4322,-6.4426,-6.4475,-6.4438,-6.4552,-6.4596,-6.4684,-6.4718,-6.4674,-6.4856,-6.4895,-6.5052,-6.5102,-6.5139,-6.5168,-6.5113,-6.533,-6.535,-6.5369,-6.5434,-6.546,-6.5146,-6.5145,-6.5145,-6.5144,0,-6.4421,-6.4517,-6.4601,-6.4689,-6.4749,-6.4857,-6.4871,-6.4932,-6.4922,-6.4939,-6.5071,-6.5118,-6.5206,-6.5244,-6.5234,-6.5401,-6.5373,-6.533,-6.5247,-6.5403,-6.5463,-6.5489,-6.5155,-6.5153,-6.5151,-6.5149,0,0,-6.4649,-6.4739,-6.4769,-6.4808,-6.4881,-6.4954,-6.5062,-6.5149,-6.52,-6.5264,-6.5352,-6.5478,-6.5439,-6.5487,-6.5483,-6.5557,-6.5711,-6.5504,-6.5505,-6.5537,-6.5893,-6.5921,-6.595,-6.5692,-6.5697,-6.5701,-6.5887,0,-6.4832,-6.5019,-6.5023,-6.5195,-6.5282,-6.5251,-6.5344,-6.5398,-6.5419,-6.5496,-6.5519,-6.5607,-6.555,-6.5579,-6.5652,-6.5677,-6.5781,-6.5664,-6.577,-6.5774,-6.5749,-6.5983,-6.6012,-6.6185,-6.5911,-6.5915,-6.5918,0,-6.5067,-6.514,-6.5321,-6.5381,-6.5418,-6.5502,-6.5582,-6.5658,-6.5719,-6.5729,-6.5785,-6.5771,-6.5879,-6.5799,-6.5948,-6.5868,-6.5913,-6.5932,-6.5939,-6.5943,-6.585,-6.5988,-6.624,-6.6264,-6.5956,-6.5953,-6.5951,0,-6.521,-6.5354,-6.548,-6.5515,-6.559,-6.565,-6.5684,-6.574,-6.5793,-6.5864,-6.5898,-6.5981,-6.6025,-6.609,-6.6098,-6.6039,-6.6247,-6.6167,-6.6255,-6.6255,-6.6294,-6.629,-6.6551,-6.6334,-6.6333,-6.6333,-6.6332,0,-6.5409,-6.5519,-6.5545,-6.5621,-6.5745,-6.575,-6.5871,-6.5901,-6.5952,-6.6033,-6.6014,-6.609,-6.61,-6.6179,-6.6187,-6.6307,-6.6329,-6.6338,-6.6337,-6.6336,-6.6334,-6.636,-6.6346,-6.634,-6.6338,-6.6337,-6.6336,0,-6.5585,-6.5607,-6.5742,-6.5804,-6.5822,-6.591,-6.5962,-6.6035,-6.6057,-6.616,-6.6184,-6.6217,-6.6309,-6.6326,-6.6435,-6.6441,-6.6583,-6.6573,-6.6561,-6.6558,-6.6643,-6.6633,-6.6924,-6.6961,-6.6725,-6.6728,-6.673,0,-6.5707,-6.5791,-6.5863,-6.5917,-6.5954,-6.6042,-6.6096,-6.6106,-6.6163,-6.6241,-6.6305,-6.6396,-6.6468,-6.6618,-6.665,-6.6734,-6.6722,-6.682,-6.6734,-6.673,-6.6718,-6.671,-6.6717,-6.6833,-6.6836,-6.6838,-6.684,0,-6.592,-6.5927,-6.6007,-6.6091,-6.6157,-6.6223,-6.6286,-6.6331,-6.635,-6.6415,-6.651,-6.6567,-6.668,-6.677,-6.6854,-6.6888,-6.6866,-6.6868,-6.6891,-6.6887,-6.6875,-6.6878,-6.6599,-6.6859,-6.6857,-6.6855,-6.6854,-6.6854,-6.6069,-6.6142,-6.6204,-6.6293,-6.6343,-6.6403,-6.6474,-6.6506,-6.6586,-6.6678,-6.6681,-6.6784,-6.6846,-6.6956,-6.6997,-6.7077,-6.7046,-6.7082,-6.7089,-6.7096,-6.7102,-6.6868,-6.7093,-6.7093,-6.7093,-6.7092,-6.7092,0,-6.6276,-6.6315,-6.6398,-6.6488,-6.6558,-6.6537,-6.6606,-6.6665,-6.6757,-6.6817,-6.689,-6.7,-6.7088,-6.7129,-6.7216,-6.7273,-6.7265,-6.7294,-6.7287,-6.7294,-6.7127,-6.7096,-6.7299,-6.7299,-6.7299,-6.7299,-6.7299,-6.7299,-6.6391,-6.6513,-6.6529,-6.6675,-6.6714,-6.6816,-6.6857,-6.6912,-6.696,-6.7083,-6.7157,-6.7185,-6.7237,-6.7328,-6.7408,-6.7418,-6.7448,-6.7482,-6.7486,-6.7328,-6.7306,-6.7286,-6.7256,-6.749,-6.749,-6.7646,-6.7648,-6.7649]},{"header":{"parameterUnit":"m.s-1","parameterCategory":1,"la1":30.2991,"la2":30.254,"lo1":-89.0895,"lo2":-89.0444,"dy":0.0017,"dx":0.0017,"nx":28,"ny":28,"refTime":"2025-11-30T09:00:00:Z","depth":0,"parameterNumber":3,"parameterNumberName":"V-component_of_WINDS"},"data":[0,0,0,0,0,0,0,0,0,0,0,0,0,0,0,0,0,0,0,0,0,0,0,0,0,0,0,0,0,0,0,0,0,0,0,0,0,0,0,0,0,0,0,0,0,0,0,0,0,0,0,0,0,0,0,0,0,0,2.358,2.3579,0,2.3493,2.3492,2.3491,2.3365,2.3363,2.3361,2.3359,2.3267,2.3267,2.3266,0,0,0,0,0,0,0,0,0,0,0,0,0,2.3638,2.3637,2.358,2.3579,2.3578,2.3493,2.3492,2.349,2.3366,2.3363,2.336,2.3358,2.3267,2.3267,2.3266,0,0,0,0,0,0,0,0,0,0,0,0,0,2.3588,2.3637,2.358,2.3506,2.3498,2.3493,2.3492,2.349,2.3366,2.3363,2.336,2.3357,2.3268,2.3267,2.3266,2.3327,0,0,2.3264,2.3264,0,0,0,0,0,0,0,0,2.3591,2.3586,2.3518,2.3511,2.3502,2.3437,2.3478,2.3435,2.3367,2.3416,2.3359,2.3355,2.3326,2.332,2.3311,2.3323,2.3319,2.3264,2.3264,2.3264,2.3263,0,0,0,0,0,0,0,2.3594,2.3589,2.3545,2.3517,2.3507,2.3476,2.3465,2.347,2.339,2.3412,2.3402,2.3394,2.3321,2.3312,2.3308,2.3318,2.3264,2.3264,2.3263,2.3263,2.3375,2.3378,0,0,0,0,0,0,2.3609,2.3593,2.3548,2.3543,2.3539,2.3477,2.3465,2.3461,2.339,2.3376,2.3397,2.3388,2.3315,2.3309,2.3304,2.3371,2.3264,2.3263,2.3263,2.3372,2.3376,2.3379,0,0,0,0,0,0,2.3611,2.3606,2.3552,2.3565,2.3556,2.348,2.3476,2.3461,2.3451,2.3379,2.3364,2.3402,2.3312,2.3305,2.3323,2.3366,2.3263,2.3262,2.3368,2.3373,2.3378,2.3506,0,0,0,0,0,0,2.3613,2.3608,2.3631,2.3567,2.3556,2.3573,2.3478,2.3461,2.3451,2.3439,2.338,2.3367,2.3309,2.3324,2.3322,2.3363,2.3262,2.3363,2.337,2.3376,2.3497,2.3514,2.3529,0,0,0,0,0,2.3616,2.367,2.3632,2.3628,2.3583,2.3575,2.3569,2.3502,2.3455,2.3477,2.343,2.3368,2.3362,2.3327,2.3323,2.3365,2.336,2.3368,2.3375,2.349,2.3511,2.3529,0,0,0,0,0,0,2.374,2.366,2.3618,2.3653,2.3622,2.3554,2.358,2.3526,2.3508,2.3498,2.3414,2.3402,2.343,2.3399,2.3362,2.3421,2.3352,2.3359,2.344,2.3459,2.3475,2.3482,2.3261,0,0,0,0,0,2.3772,2.3773,2.3703,2.374,2.3727,2.3657,2.3651,2.3602,2.3567,2.3553,2.3507,2.3474,2.3465,2.346,2.3447,2.3492,2.3477,2.3519,2.3535,2.3548,2.3556,2.3577,2.3595,2.3404,2.3404,2.3404,0,0,2.3837,2.3793,2.3799,2.3764,2.3735,2.3738,2.3647,2.3653,2.3655,2.3553,2.3567,2.3533,2.3491,2.3523,2.3534,2.3498,2.3605,2.3558,2.3569,2.3569,2.3587,2.3605,2.3621,2.3409,2.3408,2.3407,0,0,2.3957,2.3925,2.3953,2.3925,2.3882,2.3834,2.3841,2.3782,2.3755,2.3768,2.3692,2.3692,2.3677,2.3651,2.3635,2.3746,2.3689,2.3744,2.3828,2.385,2.3865,2.3878,2.3918,2.3933,2.3752,2.3752,2.3752,0,2.4044,2.4046,2.3974,2.3986,2.3973,2.3882,2.391,2.3886,2.3841,2.3833,2.3793,2.3773,2.3738,2.3763,2.379,2.378,2.3785,2.3751,2.3869,2.3881,2.3892,2.3929,2.3944,2.3759,2.3758,2.3757,2.3757,0,2.4154,2.4157,2.4185,2.4144,2.4134,2.4154,2.4085,2.4083,2.4035,2.3992,2.4006,2.3961,2.3938,2.394,2.3893,2.3958,2.3936,2.3884,2.3813,2.3918,2.3952,2.3965,2.3769,2.3767,2.3764,2.3763,0,0,2.4351,2.4271,2.4282,2.4263,2.4208,2.4208,2.4224,2.4202,2.4202,2.4174,2.4185,2.4175,2.4126,2.4108,2.4057,2.4076,2.4168,2.4021,2.4019,2.405,2.4236,2.4277,2.4295,2.4129,2.4131,2.4133,2.424,0,2.4461,2.4484,2.442,2.4458,2.446,2.4374,2.4387,2.4355,2.4316,2.4311,2.4266,2.426,2.4196,2.4185,2.42,2.4154,2.4204,2.4145,2.4138,2.4139,2.4152,2.4312,2.4354,2.4457,2.4252,2.4255,2.4256,0,2.4593,2.4572,2.4612,2.4555,2.4553,2.4567,2.4542,2.4538,2.45,2.4469,2.4451,2.4391,2.4402,2.4334,2.4348,2.4309,2.4302,2.4279,2.4281,2.4278,2.4204,2.4314,2.4488,2.4504,2.4276,2.4274,2.4273,0,2.4733,2.4715,2.4736,2.4722,2.4657,2.4668,2.4642,2.46,2.4591,2.4568,2.4562,2.4541,2.4529,2.4514,2.4451,2.4407,2.4472,2.4399,2.4447,2.4449,2.4465,2.4465,2.4642,2.446,2.446,2.446,2.4459,0,2.4863,2.4891,2.4798,2.4812,2.484,2.4766,2.4795,2.476,2.4724,2.4728,2.4652,2.4657,2.4573,2.4569,2.452,2.4539,2.4534,2.4509,2.4496,2.4516,2.452,2.4511,2.4503,2.4463,2.4463,2.4462,2.4461,0,2.5025,2.4964,2.4982,2.4919,2.4903,2.4927,2.4873,2.4882,2.4837,2.4844,2.4841,2.4771,2.4763,2.4698,2.4675,2.4641,2.4679,2.4651,2.4692,2.4683,2.4736,2.4732,2.4913,2.4934,2.474,2.4741,2.4743,0,2.5112,2.5131,2.507,2.5068,2.5045,2.5043,2.5033,2.4961,2.4954,2.4912,2.4927,2.4912,2.4897,2.4887,2.4834,2.4815,2.4787,2.4852,2.4783,2.4804,2.4788,2.4788,2.479,2.4867,2.4869,2.4871,2.4873,0,2.5273,2.5243,2.5232,2.5212,2.5203,2.5183,2.5159,2.5161,2.5081,2.5077,2.5068,2.5056,2.5033,2.502,2.4992,2.4963,2.4905,2.4895,2.4905,2.4926,2.495,2.4938,2.4733,2.4891,2.4889,2.4888,2.4887,2.4886,2.54,2.5414,2.5374,2.5365,2.5339,2.5318,2.5324,2.528,2.5272,2.5248,2.5205,2.5202,2.5163,2.512,2.5096,2.5093,2.5058,2.5073,2.5077,2.5082,2.5093,2.495,2.5087,2.5087,2.5086,2.5085,2.5085,0,2.5559,2.5528,2.5521,2.549,2.5483,2.5429,2.5399,2.5397,2.5396,2.5364,2.5351,2.5341,2.5327,2.5273,2.5254,2.5262,2.5234,2.5259,2.5258,2.5252,2.5124,2.5118,2.5281,2.5281,2.5281,2.5281,2.5281,2.5281,2.564,2.566,2.5625,2.5631,2.56,2.5598,2.5585,2.5565,2.554,2.5532,2.5521,2.5486,2.5445,2.5423,2.5408,2.5392,2.5389,2.5423,2.5398,2.528,2.5261,2.5243,2.5237,2.5422,2.5423,2.5526,2.5527,2.5528]}]]